When you browse on this site, cookies collect data to enhance your experience and personalize the content and advertising you see.
Visit our Privacy Policy to learn more. By continuing to use the site, you agree to this use of cookies and data.
  • In Österreich
  • Länderverzeichnis
  • Für 7 Tage
  • Wassertemperatur
  • Satellitenkarten
  • Wetterkarte
  • News
  • Widgets
  • user-avatar
    Anmelden

    Stündliche Wetter Kabatnya

    Heute, 21 November, Mittwoch

    Zeit Temperatur Niederschläge Wind Luftdruck Luftfeuchtigkeit
    00:00 -6°C° 0 mm 2 m/S 743 mmHg 95%
    01:00 -6°C° 0 mm 2 m/S 743 mmHg 95%
    02:00 -6°C° 0 mm 2 m/S 743 mmHg 94%
    03:00 -6°C° 0 mm 2 m/S 743 mmHg 94%
    04:00 -7°C° 0 mm 3 m/S 743 mmHg 95%
    05:00 -7°C° 0 mm 3 m/S 743 mmHg 95%
    06:00 -7°C° 0 mm 3 m/S 743 mmHg 95%
    07:00 -7°C° 0 mm 3 m/S 743 mmHg 95%
    08:00 -8°C° 0 mm 4 m/S 743 mmHg 94%
    09:00 -7°C° 0 mm 4 m/S 743 mmHg 93%
    10:00 -7°C° 0 mm 4 m/S 743 mmHg 91%
    11:00 -5°C° 0 mm 4 m/S 743 mmHg 90%
    12:00 -4°C° 0 mm 3 m/S 743 mmHg 89%
    13:00 -4°C° 0 mm 3 m/S 743 mmHg 89%
    14:00 -4°C° 0 mm 3 m/S 743 mmHg 88%
    15:00 -4°C° 0 mm 3 m/S 743 mmHg 90%
    16:00 -5°C° 0 mm 3 m/S 743 mmHg 91%
    17:00 -5°C° 0 mm 3 m/S 743 mmHg 92%
    18:00 -5°C° 0 mm 3 m/S 743 mmHg 92%
    19:00 -6°C° 0 mm 3 m/S 743 mmHg 92%
    20:00 -6°C° 0 mm 3 m/S 743 mmHg 91%
    21:00 -6°C° 0 mm 3 m/S 743 mmHg 92%
    22:00 -6°C° 0 mm 2 m/S 744 mmHg 92%
    23:00 -6°C° 0 mm 2 m/S 744 mmHg 93%

    Morgen, 22 November, Donnerstag

    Zeit Temperatur Niederschläge Wind Luftdruck Luftfeuchtigkeit
    00:00 -7°C° 0 mm 2 m/S 744 mmHg 93%
    01:00 -7°C° 0 mm 2 m/S 744 mmHg 93%
    02:00 -8°C° 0 mm 2 m/S 744 mmHg 94%
    03:00 -8°C° 0 mm 2 m/S 743 mmHg 94%
    04:00 -8°C° 0 mm 2 m/S 743 mmHg 94%
    05:00 -8°C° 0 mm 2 m/S 743 mmHg 94%
    06:00 -8°C° 0 mm 2 m/S 743 mmHg 94%
    07:00 -8°C° 0 mm 2 m/S 744 mmHg 94%
    08:00 -8°C° 0 mm 2 m/S 744 mmHg 94%
    09:00 -6°C° 0 mm 2 m/S 744 mmHg 91%
    10:00 -5°C° 0 mm 2 m/S 744 mmHg 88%
    11:00 -4°C° 0 mm 2 m/S 744 mmHg 84%
    12:00 -3°C° 0 mm 2 m/S 744 mmHg 83%
    13:00 -3°C° 0 mm 2 m/S 744 mmHg 82%
    14:00 -2°C° 0 mm 2 m/S 744 mmHg 81%
    15:00 -3°C° 0 mm 2 m/S 744 mmHg 83%
    16:00 -4°C° 0 mm 2 m/S 743 mmHg 85%
    17:00 -5°C° 0 mm 2 m/S 743 mmHg 87%
    18:00 -6°C° 0 mm 2 m/S 743 mmHg 87%
    19:00 -6°C° 0 mm 2 m/S 744 mmHg 87%
    20:00 -6°C° 0 mm 2 m/S 744 mmHg 87%
    21:00 -6°C° 0 mm 2 m/S 744 mmHg 87%
    22:00 -6°C° 0 mm 2 m/S 744 mmHg 87%
    23:00 -7°C° 0 mm 2 m/S 744 mmHg 87%

    übermorgen, 23 November, Freitag

    Zeit Temperatur Niederschläge Wind Luftdruck Luftfeuchtigkeit
    00:00 -7°C° 0 mm 2 m/S 744 mmHg 87%
    01:00 -7°C° 0 mm 2 m/S 744 mmHg 88%
    02:00 -7°C° 0 mm 2 m/S 744 mmHg 88%
    03:00 -7°C° 0 mm 2 m/S 744 mmHg 88%
    04:00 -7°C° 0 mm 2 m/S 744 mmHg 89%
    05:00 -7°C° 0 mm 2 m/S 744 mmHg 89%
    06:00 -7°C° 0 mm 2 m/S 744 mmHg 89%
    07:00 -7°C° 0 mm 2 m/S 745 mmHg 89%
    08:00 -7°C° 0 mm 2 m/S 745 mmHg 89%
    09:00 -6°C° 0 mm 2 m/S 745 mmHg 86%
    10:00 -5°C° 0 mm 2 m/S 746 mmHg 83%
    11:00 -4°C° 0 mm 2 m/S 746 mmHg 80%
    12:00 -1°C° 0 mm 1 m/S 746 mmHg 80%
    13:00 -1°C° 0 mm 1 m/S 746 mmHg 79%
    14:00 0°C° 0 mm 1 m/S 746 mmHg 78%
    15:00 -2°C° 0 mm 1 m/S 746 mmHg 81%
    16:00 -3°C° 0 mm 1 m/S 746 mmHg 84%
    17:00 -4°C° 0 mm 1 m/S 746 mmHg 87%
    18:00 -6°C° 0 mm 1 m/S 746 mmHg 88%
    19:00 -6°C° 0 mm 1 m/S 746 mmHg 89%
    20:00 -6°C° 0 mm 1 m/S 746 mmHg 90%
    21:00 -8°C° 0 mm 2 m/S 746 mmHg 91%
    22:00 -8°C° 0 mm 2 m/S 746 mmHg 91%
    23:00 -8°C° 0 mm 2 m/S 746 mmHg 92%

    24 November, Samstag

    Zeit Temperatur Niederschläge Wind Luftdruck Luftfeuchtigkeit
    00:00 -8°C° 0 mm 2 m/S 746 mmHg 92%
    01:00 -9°C° 0 mm 2 m/S 746 mmHg 92%
    02:00 -9°C° 0 mm 2 m/S 745 mmHg 92%
    03:00 -9°C° 0 mm 2 m/S 745 mmHg 91%
    04:00 -9°C° 0 mm 2 m/S 744 mmHg 90%
    05:00 -9°C° 0 mm 2 m/S 744 mmHg 88%
    06:00 -10°C° 0 mm 3 m/S 744 mmHg 87%
    07:00 -10°C° 0 mm 3 m/S 744 mmHg 86%
    08:00 -10°C° 0 mm 3 m/S 744 mmHg 85%
    09:00 -9°C° 0 mm 3 m/S 743 mmHg 82%
    10:00 -8°C° 0 mm 4 m/S 743 mmHg 79%
    11:00 -7°C° 0 mm 4 m/S 743 mmHg 76%
    12:00 -5°C° 0 mm 4 m/S 742 mmHg 76%
    13:00 -5°C° 0 mm 4 m/S 742 mmHg 77%
    14:00 -4°C° 0 mm 4 m/S 741 mmHg 78%
    15:00 -5°C° 0 mm 4 m/S 741 mmHg 82%
    16:00 -7°C° 0 mm 4 m/S 740 mmHg 86%
    17:00 -6°C° 0 mm 3 m/S 740 mmHg 90%
    18:00 -6°C° 0 mm 3 m/S 740 mmHg 91%
    19:00 -6°C° 0 mm 3 m/S 740 mmHg 91%
    20:00 -7°C° 0 mm 4 m/S 739 mmHg 92%
    21:00 -6°C° 0 mm 3 m/S 739 mmHg 91%
    22:00 -6°C° 0 mm 3 m/S 739 mmHg 90%
    23:00 -6°C° 0 mm 3 m/S 739 mmHg 89%

    25 November, Sonntag

    Zeit Temperatur Niederschläge Wind Luftdruck Luftfeuchtigkeit
    00:00 -6°C° 0 mm 3 m/S 738 mmHg 89%
    01:00 -6°C° 0 mm 3 m/S 738 mmHg 89%
    02:00 -6°C° 0 mm 3 m/S 737 mmHg 88%
    03:00 -6°C° 0 mm 3 m/S 737 mmHg 89%
    04:00 -6°C° 0 mm 3 m/S 736 mmHg 89%
    05:00 -5°C° 0 mm 2 m/S 736 mmHg 90%
    06:00 -5°C° 0 mm 2 m/S 736 mmHg 90%
    07:00 -4°C° 0 mm 2 m/S 736 mmHg 91%
    08:00 -4°C° 0 mm 2 m/S 736 mmHg 91%
    09:00 -3°C° 0 mm 2 m/S 736 mmHg 90%
    10:00 -2°C° 0 mm 2 m/S 735 mmHg 88%
    11:00 -1°C° 0 mm 2 m/S 735 mmHg 87%
    12:00 -1°C° 0 mm 2 m/S 735 mmHg 88%
    13:00 +1°C° 0 mm 2 m/S 735 mmHg 88%
    14:00 +1°C° 0 mm 2 m/S 734 mmHg 89%
    15:00 +1°C° 0 mm 2 m/S 734 mmHg 90%
    16:00 -1°C° 0 mm 2 m/S 734 mmHg 91%
    17:00 -1°C° 0 mm 2 m/S 734 mmHg 92%
    18:00 -1°C° 0 mm 2 m/S 734 mmHg 93%
    19:00 -1°C° 0 mm 2 m/S 734 mmHg 94%
    20:00 -1°C° 0 mm 2 m/S 734 mmHg 95%
    21:00 -1°C° 0 mm 2 m/S 734 mmHg 95%
    22:00 -1°C° 0 mm 3 m/S 734 mmHg 95%
    23:00 -1°C° 0 mm 3 m/S 734 mmHg 95%

    26 November, Montag

    Zeit Temperatur Niederschläge Wind Luftdruck Luftfeuchtigkeit
    00:00 -1°C° 0 mm 3 m/S 734 mmHg 95%
    01:00 -2°C° 0 mm 3 m/S 734 mmHg 95%
    02:00 -2°C° 0 mm 3 m/S 734 mmHg 95%
    03:00 -2°C° 0 mm 3 m/S 734 mmHg 95%
    04:00 -2°C° 0 mm 3 m/S 734 mmHg 96%
    05:00 -2°C° 0 mm 3 m/S 734 mmHg 96%
    06:00 -2°C° 0 mm 2 m/S 734 mmHg 96%
    07:00 -2°C° 0 mm 2 m/S 734 mmHg 95%
    08:00 -2°C° 0 mm 2 m/S 734 mmHg 95%
    09:00 -1°C° 0 mm 2 m/S 735 mmHg 94%
    10:00 -1°C° 0 mm 3 m/S 735 mmHg 93%
    11:00 -1°C° 0 mm 3 m/S 735 mmHg 91%
    12:00 -1°C° 0 mm 3 m/S 735 mmHg 90%
    13:00 -1°C° 0 mm 3 m/S 735 mmHg 89%
    14:00 0°C° 0 mm 3 m/S 735 mmHg 88%
    15:00 -1°C° 0 mm 3 m/S 735 mmHg 90%
    16:00 -1°C° 0 mm 3 m/S 735 mmHg 91%
    17:00 -1°C° 0 mm 3 m/S 735 mmHg 92%
    18:00 -2°C° 0 mm 3 m/S 735 mmHg 92%
    19:00 -3°C° 0 mm 4 m/S 735 mmHg 92%
    20:00 -3°C° 0 mm 4 m/S 736 mmHg 91%
    21:00 -3°C° 0 mm 4 m/S 736 mmHg 91%
    22:00 -5°C° 0 mm 5 m/S 736 mmHg 90%
    23:00 -5°C° 0 mm 5 m/S 736 mmHg 89%
    Mehr zeigen